Location: Brno
(49.2000°N, 16.6330°E)
Time: 20:45:29
(UTC+01:00)

ISS - Visible Passes

Search period start: 26 February 2017 00:00
Search period end: 08 March 2017 00:00
Orbit: 399 x 408 km, 51.6° (Epoch: 27 February)

Date Brightness Start Highest point End Pass type
(mag) Time Alt. Az. Time Alt. Az. Time Alt. Az.
01 Mar -0.3 05:57:26 10° S 05:59:12 14° SE 06:00:57 10° ESE visible
03 Mar -1.2 05:47:24 10° SSW 05:50:12 26° SE 05:53:01 10° E visible
04 Mar -0.6 04:55:42 10° S 04:57:49 16° SE 04:59:56 10° E visible
05 Mar -2.4 05:38:05 10° SW 05:41:17 47° SSE 05:44:28 10° ENE visible
06 Mar -1.7 04:47:12 20° SSW 04:48:46 30° SE 04:51:42 10° E visible
07 Mar -0.9 03:56:49 18° SE 03:56:49 18° SE 03:58:42 10° E visible
07 Mar -3.3 05:29:28 13° WSW 05:32:23 80° SSE 05:35:42 10° ENE visible
